EHI
0 1 5 8 5 2 3 3 2 1 1 1 2 4 4 2 0 0 0 0 0 0 0 0 2 4 4 2 2 2 2 2 2 1 0 0 0 0 1 2 1 0 0
0 1 6 8 6 3 3 4 3 2 2 1 1 3 3 1 0 0 0 0 0 0 0 0 1 3 2 1 1 1 1 1 1 0 0 0 0 0 1 2 2 1 0
0 1 5 8 6 4 3 3 3 3 3 2 1 2 1 0 0 0 1 0 0 0 0 0 1 2 1 0 0 0 0 1 1 0 0 0 0 0 1 1 1 1 1
0 1 4 7 6 4 3 3 4 4 3 1 0 0 0 0 0 0 0 0 0 0 0 0 1 2 1 0 0 0 0 1 2 1 0 0 0 0 0 1 1 1 2
0 0 3 6 7 5 4 4 4 3 1 0 0 0 0 0 0 0 0 0 0 0 0 0 0 1 1 0 0 0 0 1 1 1 0 0 0 0 1 1 1 1 2
0 0 3 8 9 7 6 5 3 2 1 0 0 0 0 0 0 0 0 0 0 0 0 0 0 0 0 0 0 0 0 0 0 0 0 0 0 0 1 2 1 1 2
0 0 3 8 11 10 9 6 3 1 1 0 0 0 0 0 1 1 1 1 0 0 0 0 0 0 0 0 0 0 0 0 0 0 0 0 0 0 1 2 3 3 2
0 0 2 6 9 10 9 5 3 3 3 2 1 0 0 1 2 2 2 2 1 0 0 0 0 0 1 1 1 1 0 0 0 0 0 0 0 0 0 2 3 3 2
0 0 1 3 5 6 5 4 5 6 6 4 2 1 0 1 2 2 2 2 2 1 0 0 0 0 0 0 0 1 1 0 0 0 0 0 0 1 1 1 2 2 1
0 0 0 1 3 4 3 3 4 6 6 5 3 1 0 0 1 1 1 1 2 1 0 0 0 0 0 0 0 0 0 0 0 0 0 0 1 2 2 1 1 1 0
0 0 0 1 3 3 3 3 3 3 4 4 3 2 0 0 0 0 0 0 1 1 0 0 0 0 0 0 0 0 0 0 0 0 0 1 2 3 3 2 1 0 0
0 0 0 1 2 2 2 1 1 1 2 2 2 1 0 0 0 0 0 0 0 0 0 0 0 0 0 0 0 0 0 0 0 0 0 1 3 4 4 3 1 0 0
0 0 0 1 1 1 1 0 0 0 0 1 1 0 0 0 0 0 0 0 0 0 0 0 0 0 0 0 0 0 0 0 0 0 0 1 3 4 4 3 1 0 0
1 0 0 0 0 0 0 0 0 0 0 0 0 0 0 0 0 0 0 0 0 0 0 0 0 0 0 0 0 0 0 0 0 0 0 0 1 2 3 3 1 0 0
2 1 0 0 0 0 0 0 0 0 0 0 0 0 0 0 0 0 0 0 0 0 0 0 0 0 0 0 0 0 0 0 0 0 0 0 0 0 1 2 1 0 0
2 1 0 0 0 0 0 1 1 1 0 0 0 0 0 0 0 0 0 0 0 0 0 0 0 0 0 0 0 0 0 0 0 0 0 0 0 0 0 1 1 0 0
2 1 0 0 0 0 0 1 2 1 0 0 0 0 0 0 0 0 0 0 0 0 0 0 0 0 0 0 0 1 0 0 0 0 0 0 0 0 0 0 0 0 0
2 1 0 0 0 0 0 1 2 2 1 0 0 0 0 0 0 0 0 0 0 0 0 0 0 0 0 0 0 0 0 0 0 0 0 0 0 0 0 0 0 0 0
2 1 0 0 0 0 0 1 2 2 1 0 0 0 0 0 0 0 0 0 0 0 0 0 0 0 0 0 0 0 0 0 0 0 0 0 0 0 0 0 0 0 0
1 0 0 0 0 0 0 1 2 2 1 0 0 0 0 0 0 0 0 0 0 0 0 0 0 0 0 0 0 0 0 0 0 0 0 0 0 0 0 0 0 0 0
0 0 0 0 0 0 0 0 1 1 0 0 0 0 0 0 0 0 0 0 0 0 0 0 0 0 0 0 0 0 0 0 0 0 0 0 0 0 0 0 0 0 0
0 0 0 0 0 0 0 0 0 0 0 0 0 0 0 0 0 0 0 0 0 0 0 0 0 0 0 0 0 0 0 0 0 0 0 0 0 0 0 0 0 0 0
0 0 0 1 1 1 1 2 2 2 2 1 0 0 0 0 0 0 0 0 0 0 0 0 0 0 0 0 0 0 0 0 0 0 0 0 0 0 0 0 0 0 0
1 1 1 2 2 3 4 6 6 5 4 2 0 0 0 0 0 0 0 0 0 0 0 0 0 0 0 0 0 0 0 0 0 0 0 0 0 0 0 0 0 0 0
3 3 3 3 3 4 7 9 9 7 6 4 1 1 1 0 0 0 0 0 0 0 0 0 0 0 0 0 0 0 0 0 0 0 0 0 0 0 0 0 0 0 0
5 5 5 4 3 5 8 11 11 10 7 5 3 2 2 1 0 0 0 0 0 0 0 0 0 0 0 0 0 0 0 0 0 0 0 0 0 0 0 0 0 0 0
Wind_Speed
1 2 3 5 7 8 9 9 10 10 10 10 10 10 10 10 10 10 11 11 10 10 11 11 11 12 12 12 11 11 11 12 12 12 12 13 13 14 14 13 13 10 13
2 2 5 5 7 8 10 10 10 10 10 9 9 9 9 10 10 11 11 11 11 11 11 11 11 11 12 12 12 11 11 11 11 12 12 12 13 13 13 12 12 8 13
3 2 4 6 8 9 9 10 10 10 9 9 9 9 9 9 10 11 11 11 11 11 11 11 11 11 11 11 11 11 10 11 11 11 11 7 9 12 12 12 12 12 13
3 3 4 7 8 9 9 9 9 9 9 9 9 9 8 9 9 10 10 10 11 11 11 11 10 10 10 11 11 10 9 10 10 10 6 5 6 10 11 11 12 12 12
3 3 5 8 8 9 9 9 9 8 8 9 9 9 9 9 9 10 10 10 10 10 10 10 10 10 10 10 10 9 9 9 9 8 5 4 4 9 11 11 11 12 12
3 3 5 7 7 8 8 8 8 8 8 8 8 9 9 9 9 9 10 10 10 9 9 9 9 10 9 9 9 9 9 8 8 5 5 4 4 8 10 10 11 11 11
3 3 3 6 7 7 7 7 7 7 7 7 7 8 8 8 9 9 9 9 9 9 8 9 9 9 9 8 8 8 8 8 6 5 4 4 4 8 9 10 10 10 10
3 3 3 5 5 6 7 6 6 6 6 6 7 7 7 8 8 8 9 8 8 8 7 8 8 8 7 7 7 7 7 6 6 5 4 4 5 7 9 9 9 9 10
3 3 2 2 3 4 5 6 6 6 6 6 6 6 7 7 7 8 8 7 7 7 7 7 7 7 6 6 6 6 6 6 5 4 4 3 5 7 9 9 9 8 8
2 2 2 2 2 1 2 4 5 5 5 5 5 6 6 6 6 6 6 6 6 6 6 6 6 6 5 5 5 5 5 5 4 4 3 4 7 7 8 8 8 7 8
2 1 1 2 1 1 1 2 3 3 4 4 4 5 4 2 2 3 4 5 5 5 5 5 5 4 4 5 5 5 4 2 4 3 2 5 7 7 7 8 7 7 7
2 1 1 1 1 1 1 1 1 1 1 2 2 2 2 2 2 2 3 4 4 5 5 4 4 4 4 3 3 3 2 3 3 2 2 6 7 7 7 7 7 7 7
2 1 1 1 1 1 1 1 1 1 1 1 2 2 2 2 2 2 1 2 2 3 3 3 3 2 3 2 2 2 2 2 1 1 2 5 6 6 6 7 7 7 7
2 1 1 2 1 1 1 0 1 1 1 1 1 2 2 1 1 1 1 1 1 1 2 2 2 2 3 3 2 2 2 2 1 1 2 4 4 5 6 6 6 6 6
2 1 1 2 2 1 1 0 1 1 1 1 1 1 2 2 1 1 1 1 1 2 2 2 2 2 2 2 2 2 2 2 1 1 1 3 4 5 5 6 6 6 6
2 1 1 2 2 2 1 1 1 1 1 1 1 1 2 2 2 2 1 1 1 1 1 2 2 2 2 2 1 2 2 2 1 1 1 1 2 4 5 5 5 6 6
2 1 2 2 2 2 1 1 1 1 1 1 1 1 2 2 2 2 2 1 1 1 2 2 2 2 2 2 2 2 1 1 1 1 1 0 0 1 2 3 4 5 6
2 2 2 2 3 2 1 1 1 1 1 1 1 1 2 2 3 3 2 1 1 2 2 2 2 2 2 2 2 1 1 1 1 1 1 0 0 0 1 1 3 3 4
2 2 2 2 3 2 2 1 1 1 1 1 1 1 1 2 3 3 2 1 2 2 2 2 2 2 2 2 2 2 1 1 0 0 1 0 0 0 0 1 1 2 3
2 2 2 2 2 2 2 2 2 1 1 1 1 1 2 2 3 3 2 2 2 2 2 2 3 2 2 2 2 3 2 1 1 1 1 1 1 1 1 0 0 1 2
2 2 2 2 2 2 2 1 1 1 0 0 0 1 1 2 3 3 2 2 2 2 2 3 3 3 2 2 2 2 2 2 2 1 1 1 1 0 1 1 0 0 1
3 3 2 2 2 2 2 1 1 1 1 1 0 1 2 2 3 3 3 2 2 2 2 2 3 2 1 1 2 2 1 2 2 2 1 1 0 0 0 1 1 1 1
4 4 4 3 2 2 2 2 2 2 2 2 1 1 1 2 2 2 3 2 2 3 2 2 3 3 2 1 1 2 2 1 1 2 2 1 1 1 0 0 1 0 1
6 4 3 3 2 2 3 3 3 2 1 1 0 0 1 2 2 2 2 3 2 2 2 2 2 2 3 1 1 1 1 2 2 0 1 1 1 1 1 0 0 0 0
5 4 3 3 2 2 3 3 3 2 1 1 1 1 1 1 1 2 2 2 2 2 2 2 2 2 2 2 2 1 1 1 1 2 1 1 1 1 0 0 0 0 1
4 4 3 3 2 2 3 3 3 4 3 2 2 1 1 1 1 1 1 2 2 2 2 2 2 2 2 2 2 2 2 2 2 2 2 1 1 1 1 0 0 1 1
Wind_Direction
226 218 178 146 133 123 120 118 116 115 113 112 110 109 109 114 118 122 124 123 122 123 123 123 123 120 121 123 123 123 122 125 127 125 127 132 133 133 133 133 131 130 132
172 168 161 144 131 124 122 119 117 116 114 112 110 108 108 111 115 120 122 124 123 121 119 121 122 119 119 122 123 124 123 127 127 125 126 129 134 134 135 136 136 135 135
128 143 149 143 132 126 123 122 122 120 117 114 112 109 108 111 116 122 123 123 122 119 118 119 121 121 121 123 124 124 126 127 125 124 124 121 133 136 138 140 139 136 135
122 130 143 139 131 127 125 124 121 121 120 116 112 110 110 113 117 122 125 123 120 118 118 119 121 122 123 125 125 125 126 127 124 124 118 120 131 138 141 141 142 142 138
115 128 140 136 134 130 127 124 121 121 120 117 112 109 108 113 115 119 123 120 117 117 118 119 119 120 120 125 128 126 124 126 127 122 113 114 121 142 145 143 145 146 144
123 129 138 138 139 133 131 127 124 121 119 116 115 113 112 111 111 115 119 117 117 117 117 115 116 117 118 123 127 127 122 124 118 115 118 124 131 149 148 147 150 149 150
125 130 140 141 140 139 138 132 125 122 121 119 117 115 115 111 110 113 118 117 119 119 118 116 118 117 117 120 125 124 123 123 112 111 120 132 144 153 153 152 154 154 153
125 132 132 141 142 138 137 135 131 128 127 125 125 122 118 116 115 114 117 117 119 121 120 119 118 116 115 115 116 118 121 121 118 124 126 136 147 154 156 154 156 158 158
100 102 112 125 131 136 141 145 142 138 137 136 135 130 123 120 119 119 122 127 127 125 124 124 122 119 117 117 119 120 121 118 115 126 141 138 145 149 154 157 159 159 164
84 89 92 88 79 92 126 152 150 145 142 140 139 134 129 128 129 127 126 133 134 130 129 129 122 120 116 117 119 118 120 118 117 123 133 149 155 158 159 159 161 162 164
102 76 76 85 79 65 84 165 156 153 152 148 143 138 127 99 103 117 122 133 136 129 122 119 116 113 104 102 109 109 108 107 122 125 143 158 160 165 166 166 168 166 163
146 123 91 95 66 57 90 66 59 87 107 103 99 105 99 94 89 103 113 125 129 125 121 117 106 97 84 76 85 88 93 117 126 137 152 162 167 175 179 176 177 176 172
143 142 142 152 123 89 51 56 63 67 80 90 101 109 109 97 88 80 80 86 90 103 102 103 88 83 89 92 90 93 98 108 122 143 159 172 180 183 184 183 184 185 181
121 153 158 138 132 114 82 76 85 98 106 119 121 123 121 111 95 94 87 84 86 96 100 95 99 94 93 95 102 110 113 120 128 140 168 172 182 189 190 190 191 194 189
138 159 159 141 143 140 122 141 114 127 144 158 139 132 134 132 132 120 106 97 102 106 113 113 109 97 88 90 107 121 131 135 140 149 166 181 190 196 197 196 200 203 197
159 163 144 137 148 142 150 170 143 135 131 119 122 145 144 140 141 137 119 101 103 108 118 122 125 116 110 107 103 113 128 138 139 139 147 201 214 206 206 209 207 202 194
163 155 160 160 141 140 158 178 157 143 120 121 137 147 150 149 151 139 126 125 140 123 116 107 101 97 96 97 92 96 106 122 121 126 136 145 224 230 209 208 202 196 199
145 147 171 157 136 142 144 134 127 124 122 131 140 126 137 142 139 126 126 135 130 120 122 119 111 94 85 85 77 66 78 79 88 118 112 111 105 311 236 194 188 195 199
157 150 145 131 125 130 123 108 107 107 115 123 120 131 139 137 136 133 136 147 135 128 124 129 112 112 112 103 95 74 57 51 35 84 111 120 136 131 151 208 180 185 197
149 144 142 125 116 114 100 87 81 82 78 86 119 152 144 140 134 131 139 153 140 123 117 122 114 106 110 109 90 69 53 42 53 51 59 87 120 160 147 180 230 208 204
148 151 153 142 136 125 109 112 115 124 119 89 146 150 141 137 132 136 140 142 133 133 139 129 120 109 97 100 90 61 39 49 59 47 39 52 39 75 140 174 178 186 219
171 176 170 169 157 151 140 131 131 130 141 136 60 92 118 130 136 143 141 143 137 129 121 123 130 132 129 108 118 101 35 11 17 32 42 57 36 47 123 174 177 181 217
182 190 190 188 174 158 132 105 87 75 65 61 56 61 87 121 132 134 140 146 145 143 147 152 153 153 152 108 115 137 139 195 334 1 22 33 48 53 26 63 126 146 201
197 190 190 181 172 154 136 130 130 132 137 161 145 120 68 100 116 129 137 145 151 151 154 169 160 150 145 144 107 91 131 148 147 352 351 19 31 45 25 1 145 144 177
188 180 180 170 174 158 148 155 148 143 148 120 94 82 61 61 88 118 138 145 151 152 159 163 146 147 154 162 160 146 122 106 135 155 250 342 9 347 282 262 189 186 213
177 174 168 167 184 166 159 161 162 159 147 130 120 105 71 61 64 82 127 137 146 151 164 166 157 154 162 156 154 156 160 166 174 164 180 221 300 319 327 307 211 220 221